Simultaneous Nadir Overpasses (SNOs) Predictions

Prediction of SNOs between NOAA-20 and LANDSAT-8 Satellite Orbit:

Table of predicted SNOs for the next 14.0 days since TLE Epoch: 3/16/2024
Index Date (NOAA-20) Time (NOAA-20) Lat,Lon (NOAA-20) SZA (NOAA-20 ) Date (LANDSAT-8) Time (LANDSAT-8) Lat,Lon (LANDSAT-8) SZA (LANDSAT-8 ) Distance(km) Time Diff (sec)
1 03/18/2024 06:32:39 -70.22,-101.96 109.06 03/18/2024 06:33:27 -70.21,-101.90 109.08 2.40 48
2 03/18/2024 07:23:23 70.10, 65.52 70.82 03/18/2024 07:22:54 70.11, 65.60 70.82 3.06 29
3 03/20/2024 21:59:05 71.06,-154.87 70.79 03/20/2024 22:00:12 70.98,-152.50 70.61 86.24 67
4 03/20/2024 22:49:31 -70.13, 13.96 110.21 03/20/2024 22:49:55 -70.15, 13.90 110.20 3.01 24
5 03/20/2024 23:40:15 70.02,-178.57 69.66 03/20/2024 23:39:22 70.05,-178.61 69.69 3.05 53
6 03/23/2024 14:15:43 70.26, -37.77 68.87 03/23/2024 14:16:52 70.23, -37.74 68.84 3.17 69
7 03/23/2024 15:06:24 -70.10, 129.78 111.30 03/23/2024 15:06:22 -70.12, 129.74 111.29 2.16 2
8 03/23/2024 15:57:04 69.79, -62.43 68.36 03/23/2024 15:55:52 69.84, -63.00 68.44 22.67 72
9 03/26/2024 06:32:34 70.19, 78.11 67.74 03/26/2024 06:33:18 70.17, 78.06 67.72 2.84 44
10 03/26/2024 07:23:16 -70.09,-114.41 112.38 03/26/2024 07:22:48 -70.06,-114.46 112.40 3.29 28
11 03/28/2024 21:58:57 -71.01, 25.26 112.44 03/28/2024 22:00:05 -70.91, 27.40 112.61 78.60 68
12 03/28/2024 22:49:26 70.13,-166.01 66.63 03/28/2024 22:49:44 70.14,-166.09 66.64 3.24 18
13 03/28/2024 23:40:08 -70.02, 1.47 113.50 03/28/2024 23:39:14 -70.03, 1.39 113.48 3.15 54



Historial Predications of SNOs between NOAA-20 and LANDSAT-8
